This is the latest recevied weather packets stored in our database for station/object OK1SK-13. If no packets are shown the sender has not sent any weather packets the latest 10 day(s).
| Time | Temp. | Humidity | Pressure | Rain* | Wind** | Luminosity | Snow |
|---|---|---|---|---|---|---|---|
| 1777747492 | 18.89° C | 42% | 1015.3 hPa | - | - | - | - |
| 1777746594 | 19.44° C | 43% | 1015.2 hPa | - | - | - | - |
| 1777745696 | 19.44° C | 43% | 1015.1 hPa | - | - | - | - |
| 1777744799 | 19.44° C | 42% | 1015.1 hPa | - | - | - | - |
| 1777743901 | 19.44° C | 41% | 1015.1 hPa | - | - | - | - |
| 1777743004 | 20° C | 40% | 1015.2 hPa | - | - | - | - |
| 1777742106 | 20° C | 42% | 1015.2 hPa | - | - | - | - |
| 1777741208 | 19.44° C | 40% | 1015.3 hPa | - | - | - | - |
| 1777740311 | 19.44° C | 41% | 1015.4 hPa | - | - | - | - |
| 1777739413 | 19.44° C | 39% | 1015.5 hPa | - | - | - | - |
| 1777738514 | 19.44° C | 43% | 1015.7 hPa | - | - | - | - |
| 1777737616 | 19.44° C | 44% | 1015.9 hPa | - | - | - | - |
| 1777736718 | 19.44° C | 44% | 1016.2 hPa | - | - | - | - |
| 1777735820 | 19.44° C | 44% | 1016.3 hPa | - | - | - | - |
| 1777734921 | 19.44° C | 44% | 1016.4 hPa | - | - | - | - |
| 1777734022 | 19.44° C | 44% | 1016.5 hPa | - | - | - | - |
| 1777733125 | 19.44° C | 44% | 1016.8 hPa | - | - | - | - |
| 1777732227 | 19.44° C | 43% | 1017 hPa | - | - | - | - |
| 1777731329 | 20° C | 43% | 1017.1 hPa | - | - | - | - |
| 1777730430 | 20° C | 43% | 1017.4 hPa | - | - | - | - |
| 1777729532 | 19.44° C | 44% | 1017.5 hPa | - | - | - | - |
| 1777728634 | 18.89° C | 45% | 1017.7 hPa | - | - | - | - |
| 1777727735 | 18.89° C | 44% | 1017.8 hPa | - | - | - | - |
| 1777726836 | 18.89° C | 40% | 1018.1 hPa | - | - | - | - |
| 1777725938 | 18.33° C | 41% | 1018.4 hPa | - | - | - | - |
* Rain since midnight (hover to see other rain measurements)
** Current wind speed in m/s (hover to see current wind gust speed)